Location: Anaheim
(33.8350°N, 117.9140°W)
Time: 20:47:27
(UTC-07:00)

Amateur Radio Satellites - All Passes

Search period start: 26 May 2015 20:17
Search period end: 27 May 2015 20:17
Location: Anaheim, 33.8350°N, 117.9140°W

Satellite Date Start Highest point End Downlink Frequencies (MHz)
Time Altitude Azimuth
AAUSAT CUBESAT 2 26 May 20:27:02 20:30:07 21° 72° (ENE) 20:33:19 437.432
PRISM 26 May 20:27:02 20:30:38 28° 288° (WNW) 20:34:10 437.425
DOVE 4 26 May 20:29:57 20:34:48 49° 74° (ENE) 20:39:53 437.250
CUBESAT XI-V 26 May 20:35:02 20:37:15 13° 292° (WNW) 20:39:12 437.345
AIST 2 26 May 20:38:11 20:39:29 11° 314° (NW) 20:40:33 435.215
Cosmos 2504 26 May 20:40:25 20:46:21 28° 73° (ENE) 20:52:28 435.465 / 435.565
M-CUBED/EXP-1 PRIME 26 May 20:46:45 20:49:49 36° 290° (WNW) 20:52:54 437.505
AUBIESAT-1 26 May 20:55:11 20:58:12 33° 290° (WNW) 21:01:13 437.475
DELFI C3 26 May 20:56:56 20:58:58 14° 70° (ENE) 21:01:10 145.870
BRITE-PL 26 May 21:02:44 21:07:10 31° 266° (W) 21:11:52 437.365/2234.400
CUBEBUG 2 26 May 21:04:07 21:08:00 26° 72° (ENE) 21:12:00 437.445
GOMX 1 26 May 21:05:52 21:10:43 46° 263° (W) 21:15:50 467.674
ZACube-1 26 May 21:07:49 21:10:43 17° 70° (ENE) 21:13:47 437.345
CANX-2 26 May 21:08:56 21:13:07 54° 260° (W) 21:17:18 2200.000
CUTE 1.7 + AOD 2 26 May 21:12:31 21:16:42 54° 260° (W) 21:20:52 437.475
Cosmos 2491 26 May 21:12:39 21:20:02 28° 289° (WNW) 21:27:12 435.465 / 435.565
YUBILEINY 26 May 21:16:29 21:20:39 14° 279° (W) 21:24:06 435.215
Oscar 11 26 May 21:19:38 21:23:41 40° 74° (ENE) 21:27:45 145.826/435.025
DX 1 26 May 21:21:00 21:21:38 10° 67° (ENE) 21:22:34 434.975-435.025
AIST 1 26 May 21:26:29 21:30:22 34° 281° (WNW) 21:34:15
SEEDS 26 May 21:35:49 21:39:42 34° 263° (W) 21:43:33 437.485
HO-68 26 May 21:36:22 21:43:07 42° 261° (W) 21:49:49 435.675
CINEMA 3 26 May 21:46:52 21:51:42 53° 261° (W) 21:56:38 145.822/145.860
COMPASS 1 26 May 21:49:34 21:53:17 29° 264° (W) 21:56:56 437.405
UWE-3 26 May 21:51:02 21:55:41 70° 77° (ENE) 22:00:22 435.000/436.395/437.385
FUNcube-1 26 May 22:01:41 22:06:15 70° 76° (ENE) 22:10:48 145.935
AAUSAT CUBESAT 2 26 May 22:02:09 22:05:37 25° 264° (W) 22:09:01 437.432
50 SAT 26 May 22:03:15 22:05:33 16° 70° (ENE) 22:08:02 437.505
AISAT 26 May 22:03:38 22:06:24 17° 69° (ENE) 22:09:20 437.250
DOVE 4 26 May 22:09:39 22:12:54 16° 270° (W) 22:15:58 437.250
DELFI C3 26 May 22:30:05 22:33:48 35° 262° (W) 22:37:30 145.870
Cosmos 2504 26 May 22:33:14 22:39:53 41° 270° (W) 22:46:30 435.465 / 435.565
TIGRISAT 26 May 22:34:32 22:37:24 18° 93° (E) 22:40:25 435.000
HUMSAT D 26 May 22:37:42 22:42:01 82° 78° (ENE) 22:46:22 437.325/437.525
CUBEBUG 2 26 May 22:40:34 22:44:37 27° 265° (W) 22:48:35 437.445
ZACube-1 26 May 22:42:29 22:46:48 38° 262° (W) 22:51:05 437.345
UKube-1 26 May 22:44:33 22:48:52 82° 258° (WSW) 22:53:13 .
DX 1 26 May 22:53:09 22:57:26 59° 259° (W) 23:01:45 434.975-435.025
UNISAT 6 26 May 22:54:07 22:58:00 32° 97° (E) 23:01:52 437.425
Oscar 11 26 May 22:57:44 23:00:05 14° 268° (W) 23:02:12 145.826/435.025
QB50P1 26 May 22:58:43 23:01:06 15° 92° (E) 23:03:39 145.935-145.965
POLYITAN 1 26 May 23:00:29 23:03:03 16° 92° (E) 23:05:48 437.675
CUBEBUG 1 26 May 23:05:36 23:09:38 39° 74° (ENE) 23:13:44 437.445
VELOX 1 26 May 23:06:36 23:11:02 89° 73° (ENE) 23:15:30 145.980
DANDE 26 May 23:08:43 23:12:53 16° 60° (ENE) 23:16:58 436.750
ESTCUBE 1 26 May 23:09:05 23:13:24 52° 75° (ENE) 23:17:46 437.505/2401.250
ISS 26 May 23:16:28 23:19:41 79° 315° (NW) 23:22:57 145.825
NANOSAT C BR1 26 May 23:28:53 23:32:46 34° 97° (E) 23:36:40 145.865
50 SAT 26 May 23:36:26 23:40:03 31° 263° (W) 23:43:37 437.505
QB50P2 26 May 23:36:39 23:40:46 45° 99° (E) 23:44:51 145.880/145.840
ANTELSAT 26 May 23:37:05 23:41:27 74° 284° (WNW) 23:45:42 437.575/2403.000
AISAT 26 May 23:38:36 23:42:43 36° 262° (W) 23:46:50 437.250
CUSAT 1 26 May 23:39:44 23:45:58 34° 70° (ENE) 23:50:59 437.405
SPROUT 26 May 23:45:13 23:48:53 28° 72° (ENE) 23:52:39 437.525
GONETS M04 26 May 23:45:17 23:52:47 32° 72° (ENE) 00:00:26
POPSAT HIP 1 26 May 23:48:51 23:53:06 63° 101° (E) 23:57:19 437.405
DUCHIFAT 1 26 May 23:50:52 23:55:07 65° 100° (E) 23:59:19 145.980
TISAT 1 27 May 00:08:36 00:12:30 38° 74° (ENE) 00:16:30 437.305
TIGRISAT 27 May 00:10:25 00:14:16 30° 288° (WNW) 00:17:59 435.000
BUGSAT 1 27 May 00:14:21 00:18:38 86° 102° (ESE) 00:22:52 437.445
UNISAT 6 27 May 00:31:36 00:34:34 18° 291° (WNW) 00:37:21 437.425
QB50P1 27 May 00:33:12 00:37:08 36° 287° (WNW) 00:41:00 145.935-145.965
POLYITAN 1 27 May 00:35:13 00:39:05 33° 287° (WNW) 00:42:54 437.675
PCSat 27 May 00:36:16 00:41:32 58° 112° (ESE) 00:46:52 145.827
VERMONT LUNAR 27 May 00:40:24 00:43:01 23° 146° (SE) 00:45:39 437.305
CUBEBUG 1 27 May 00:43:47 00:46:13 14° 268° (W) 00:48:27 437.445
ESTCUBE 1 27 May 00:49:07 00:50:39 11° 270° (W) 00:51:52 437.505/2401.250
DANDE 27 May 00:49:50 00:57:29 78° 264° (W) 01:03:19 436.750
ISS 27 May 00:55:54 00:56:37 10° 334° (NNW) 00:57:15 145.825
ITUPSAT 1 27 May 00:59:04 01:02:38 22° 70° (ENE) 01:06:20 437.325
NANOSAT C BR1 27 May 01:05:38 01:08:21 16° 291° (WNW) 01:10:53 145.865
BEESAT 27 May 01:06:23 01:10:19 27° 71° (ENE) 01:14:20 436.000
Cosmos 2499 27 May 01:10:57 01:14:44 16° 68° (ENE) 01:18:58 435.465 / 435.565
PHONESAT 2.4 27 May 01:11:02 01:11:15 10° 141° (SE) 01:11:37 2401.200-2431.200
QB50P2 27 May 01:14:18 01:16:18 13° 292° (WNW) 01:18:03 145.880/145.840
SWISSCUBE 27 May 01:14:28 01:18:46 36° 72° (ENE) 01:23:07 437.505
SPROUT 27 May 01:21:49 01:25:01 19° 266° (W) 01:28:06 437.525
Oscar 19 27 May 01:21:59 01:25:35 20° 93° (E) 01:29:20 437.125/150
CUSAT 1 27 May 01:22:43 01:28:28 29° 274° (W) 01:32:59 437.405
GONETS M04 27 May 01:41:35 01:49:54 47° 270° (W) 01:58:02
TISAT 1 27 May 01:46:12 01:48:30 14° 268° (W) 01:50:35 437.305
Gurwin Techsat 1B 27 May 02:14:01 02:17:16 17° 92° (E) 02:20:47 435.225
O/OREOS (USA 219) 27 May 02:14:51 02:19:18 67° 252° (WSW) 02:23:44 437.305
STARS 27 May 02:16:10 02:18:33 15° 68° (ENE) 02:21:08 437.465
VERMONT LUNAR 27 May 02:16:52 02:20:03 56° 339° (NNW) 02:23:13 437.305
PCSat 27 May 02:21:41 02:25:24 18° 310° (NW) 02:28:57 145.827
ITUPSAT 1 27 May 02:36:09 02:40:23 31° 263° (W) 02:44:34 437.325
BEESAT 3 27 May 02:42:57 02:46:18 24° 53° (NE) 02:49:39 437.485
BEESAT 27 May 02:44:10 02:48:07 25° 264° (W) 02:51:59 436.000
PHONESAT 2.4 27 May 02:45:31 02:48:59 66° 152° (SSE) 02:52:26 2401.200-2431.200
KKS-1 27 May 02:46:15 02:50:36 55° 75° (ENE) 02:55:01 437.445
SWISSCUBE 27 May 02:53:23 02:56:46 19° 267° (W) 02:59:58 437.505
Oscar 19 27 May 03:00:19 03:05:07 39° 288° (WNW) 03:09:51 437.125/150
Cosmos 2499 27 May 03:01:39 03:08:40 71° 266° (W) 03:15:51 435.465 / 435.565
SO-50 27 May 03:13:15 03:17:53 86° 299° (WNW) 03:22:42 436.795
ITAMSAT 1 27 May 03:14:04 03:19:18 76° 101° (E) 03:24:32 435.822/435.867
AO-7 27 May 03:15:45 03:18:49 13° 89° (E) 03:22:39 29.400- 29.500
AIST 2 27 May 03:22:41 03:25:14 16° 49° (NE) 03:27:55 435.215
BEESAT 2 27 May 03:31:18 03:35:24 70° 61° (ENE) 03:39:24 435.950
HORYU 2 27 May 03:35:29 03:38:02 16° 92° (E) 03:40:48 437.375
STARS 27 May 03:50:27 03:54:40 42° 261° (W) 03:58:54 437.465
Gurwin Techsat 1B 27 May 03:52:27 03:57:34 48° 287° (WNW) 04:02:38 435.225
VERMONT LUNAR 27 May 03:54:55 03:57:37 24° 355° (N) 04:00:19 437.305
JAS-2 27 May 04:03:27 04:08:04 33° 97° (E) 04:12:57 435.910
MOZHAYETS 4 27 May 04:16:08 04:20:20 38° 73° (ENE) 04:24:34
BEESAT 3 27 May 04:20:58 04:24:12 23° 248° (WSW) 04:27:19 437.485
PHONESAT 2.4 27 May 04:24:03 04:27:15 33° 347° (NNW) 04:30:27 2401.200-2431.200
KKS-1 27 May 04:26:30 04:27:39 11° 270° (W) 04:28:29 437.445
ITAMSAT 1 27 May 04:56:27 04:58:15 11° 295° (WNW) 04:59:43 435.822/435.867
SO-50 27 May 04:58:13 04:59:16 10° 318° (NW) 05:00:04 436.795
AIST 2 27 May 05:00:05 05:04:03 41° 246° (WSW) 05:07:56 435.215
AO-7 27 May 05:04:27 05:12:53 84° 106° (ESE) 05:21:16 29.400- 29.500
HORYU 2 27 May 05:10:46 05:14:52 37° 287° (WNW) 05:18:54 437.375
Cosmos 2491 27 May 05:30:44 05:36:54 22° 68° (ENE) 05:43:27 435.465 / 435.565
VERMONT LUNAR 27 May 05:32:26 05:35:20 30° 12° (NNE) 05:38:14 437.305
STRAND 1 27 May 05:43:48 05:44:59 11° 65° (ENE) 05:46:30 437.568
ISS 27 May 05:47:34 05:50:04 20° 33° (NNE) 05:52:34 145.825
JAS-2 27 May 05:49:03 05:53:08 23° 290° (WNW) 05:57:11 435.910
Cubesat XI-IV 27 May 05:51:11 05:52:52 12° 90° (E) 05:54:56 437.490
MOZHAYETS 4 27 May 05:54:45 05:57:43 16° 268° (W) 06:00:30
CUBESAT XI-V 27 May 05:55:25 05:59:31 33° 73° (ENE) 06:03:40 437.345
PHONESAT 2.4 27 May 06:02:54 06:05:54 27° 5° (N) 06:08:55 2401.200-2431.200
YUBILEINY 27 May 06:18:33 06:24:16 21° 84° (E) 06:30:27 435.215
AO-7 27 May 06:59:11 07:04:50 19° 302° (WNW) 07:10:05 29.400- 29.500
CUTE-I 27 May 07:07:28 07:12:51 75° 102° (ESE) 07:18:14 437.470
VERMONT LUNAR 27 May 07:09:31 07:12:41 65° 207° (SSW) 07:15:50 437.305
PRISM 27 May 07:12:39 07:16:42 65° 259° (WSW) 07:20:46 437.425
STRAND 1 27 May 07:18:34 07:23:38 75° 259° (WSW) 07:28:45 437.568
ISS 27 May 07:23:34 07:26:32 33° 228° (SW) 07:29:30 145.825
Cosmos 2491 27 May 07:25:54 07:34:40 70° 267° (W) 07:43:20 435.465 / 435.565
Cubesat XI-IV 27 May 07:28:12 07:33:32 69° 286° (WNW) 07:38:52 437.490
M-CUBED/EXP-1 PRIME 27 May 07:30:34 07:34:53 63° 254° (WSW) 07:38:52 437.505
CUBESAT XI-V 27 May 07:33:45 07:37:03 19° 267° (W) 07:40:13 437.345
BRITE-PL 27 May 07:35:22 07:37:24 12° 87° (E) 07:39:48 437.365/2234.400
AIST 1 27 May 07:37:15 07:41:18 36° 79° (E) 07:45:23
AUBIESAT-1 27 May 07:38:33 07:42:47 58° 255° (WSW) 07:46:43 437.475
RS-15 27 May 07:39:03 07:47:40 30° 106° (ESE) 07:56:47 29.354- 29.394
PHONESAT 2.4 27 May 07:40:58 07:44:24 60° 21° (NNE) 07:47:50 2401.200-2431.200
YUBILEINY 27 May 08:11:39 08:20:25 69° 279° (W) 08:29:07 435.215
DOVE 4 27 May 08:34:37 08:37:59 19° 91° (E) 08:41:24 437.250
CUTE-I 27 May 08:50:14 08:52:23 12° 295° (WNW) 08:54:12 437.470
CANX-2 27 May 08:58:19 09:02:06 32° 97° (E) 09:05:55 2200.000
CUTE 1.7 + AOD 2 27 May 09:01:49 09:05:35 32° 97° (E) 09:09:24 437.475
HO-68 27 May 09:07:53 09:14:43 48° 100° (E) 09:21:34 435.675
BRITE-PL 27 May 09:10:58 09:16:35 69° 284° (WNW) 09:21:52 437.365/2234.400
GOMX 1 27 May 09:11:52 09:17:13 78° 100° (E) 09:22:14 467.674
Cosmos 2504 27 May 09:13:36 09:20:25 30° 88° (E) 09:27:07 435.465 / 435.565
AIST 1 27 May 09:16:12 09:18:40 14° 272° (W) 09:20:55
PHONESAT 2.4 27 May 09:19:30 09:22:21 24° 215° (SW) 09:25:10 2401.200-2431.200
SEEDS 27 May 09:23:40 09:27:43 48° 99° (E) 09:31:46 437.485
PCSat 27 May 09:28:48 09:32:50 21° 52° (NE) 09:37:00 145.827
TIGRISAT 27 May 09:30:55 09:32:33 12° 68° (ENE) 09:34:29 435.000
COMPASS 1 27 May 09:36:18 09:40:22 55° 99° (E) 09:44:26 437.405
CINEMA 3 27 May 09:46:17 09:50:51 51° 99° (E) 09:55:10 145.822/145.860
UWE-3 27 May 09:46:25 09:49:16 18° 92° (E) 09:52:15 435.000/436.395/437.385
AAUSAT CUBESAT 2 27 May 09:48:05 09:52:12 66° 100° (E) 09:56:18 437.432
RS-15 27 May 09:48:34 09:59:21 64° 304° (WNW) 10:10:22 29.354- 29.394
UNISAT 6 27 May 09:49:39 09:53:02 21° 70° (ENE) 09:56:32 437.425
FUNcube-1 27 May 09:55:32 09:58:14 17° 92° (E) 10:01:03 145.935
DOVE 4 27 May 10:11:15 10:15:58 39° 288° (WNW) 10:20:22 437.250
DELFI C3 27 May 10:12:58 10:16:42 37° 98° (E) 10:20:27 145.870
NANOSAT C BR1 27 May 10:18:40 10:21:20 17° 70° (ENE) 10:24:10 145.865
QB50P2 27 May 10:26:24 10:29:37 22° 71° (ENE) 10:32:58 145.880/145.840
HUMSAT D 27 May 10:26:59 10:29:39 17° 93° (E) 10:32:26 437.325/437.525
JUGNU 27 May 10:27:03 10:30:43 17° 171° (S) 10:34:26 437.505
ANTELSAT 27 May 10:31:37 10:36:14 61° 75° (ENE) 10:40:51 437.575/2403.000
ZACube-1 27 May 10:35:04 10:39:18 54° 100° (E) 10:43:24 437.345
CANX-2 27 May 10:35:05 10:37:49 16° 290° (WNW) 10:40:22 2200.000
CUBEBUG 2 27 May 10:35:10 10:39:36 88° 284° (WNW) 10:43:52 437.445
UKube-1 27 May 10:36:39 10:40:00 22° 95° (E) 10:43:27 .
POPSAT HIP 1 27 May 10:38:05 10:41:44 28° 72° (ENE) 10:45:28 437.405
CUTE 1.7 + AOD 2 27 May 10:38:32 10:41:18 17° 290° (WNW) 10:43:53 437.475
DUCHIFAT 1 27 May 10:39:40 10:43:19 29° 72° (ENE) 10:47:03 145.980
DX 1 27 May 10:45:37 10:49:30 31° 97° (E) 10:53:25 434.975-435.025
Oscar 11 27 May 10:46:35 10:50:49 55° 284° (WNW) 10:54:59 145.826/435.025
GOMX 1 27 May 10:52:57 10:54:38 11° 296° (WNW) 10:55:58 467.674
HO-68 27 May 10:56:13 11:02:11 28° 295° (WNW) 11:07:56 435.675
BUGSAT 1 27 May 11:00:42 11:04:25 34° 73° (ENE) 11:08:14 437.445
VELOX 1 27 May 11:01:42 11:05:12 23° 95° (E) 11:08:47 145.980
CUBEBUG 1 27 May 11:01:43 11:01:46 10° 90° (E) 11:02:09 437.445
SEEDS 27 May 11:01:45 11:03:09 11° 291° (WNW) 11:04:16 437.485
TIGRISAT 27 May 11:04:14 11:08:53 59° 260° (W) 11:13:30 435.000
Cosmos 2504 27 May 11:05:29 11:13:35 48° 282° (WNW) 11:21:05 435.465 / 435.565
ESTCUBE 1 27 May 11:07:00 11:09:31 15° 92° (E) 11:12:15 437.505/2401.250
PCSat 27 May 11:11:21 11:16:32 46° 249° (WSW) 11:21:39 145.827
50 SAT 27 May 11:16:29 11:20:03 36° 98° (E) 11:23:38 437.505
QB50P1 27 May 11:21:23 11:25:40 82° 260° (W) 11:29:59 145.935-145.965
UWE-3 27 May 11:22:04 11:25:55 30° 288° (WNW) 11:29:36 435.000/436.395/437.385
POLYITAN 1 27 May 11:23:38 11:27:55 76° 258° (WSW) 11:32:15 437.675
UNISAT 6 27 May 11:25:22 11:29:38 33° 263° (W) 11:33:49 437.425
CINEMA 3 27 May 11:25:22 11:27:34 13° 293° (WNW) 11:29:29 145.822/145.860
FUNcube-1 27 May 11:30:53 11:34:41 31° 287° (WNW) 11:38:22 145.935
AISAT 27 May 11:32:48 11:37:13 56° 100° (E) 11:41:38 437.250
SRMSAT 27 May 11:45:26 11:48:40 15° 168° (SSE) 11:51:57 437.500
SO-50 27 May 11:48:45 11:53:09 31° 53° (NE) 11:57:31 436.795
DELFI C3 27 May 11:49:31 11:51:31 13° 291° (WNW) 11:53:20 145.870
NANOSAT C BR1 27 May 11:53:03 11:56:56 33° 263° (W) 12:00:49 145.865
QB50P2 27 May 12:01:46 12:05:24 26° 264° (W) 12:08:58 145.880/145.840
HUMSAT D 27 May 12:01:51 12:05:28 29° 288° (WNW) 12:09:00 437.325/437.525
RS-15 27 May 12:07:32 12:14:44 18° 331° (NNW) 12:21:38 29.354- 29.394
DANDE 27 May 12:12:03 12:17:18 24° 84° (E) 12:23:35 436.750
ANTELSAT 27 May 12:12:17 12:13:27 11° 270° (W) 12:14:15 437.575/2403.000
UKube-1 27 May 12:12:28 12:16:07 26° 289° (WNW) 12:19:39 .
ZACube-1 27 May 12:14:12 12:15:12 11° 293° (WNW) 12:15:56 437.345
POPSAT HIP 1 27 May 12:14:29 12:17:39 19° 266° (W) 12:20:41 437.405
JUGNU 27 May 12:14:49 12:19:06 21° 180° (S) 12:23:21 437.505
DUCHIFAT 1 27 May 12:16:04 12:19:10 19° 266° (W) 12:22:09 145.980
DX 1 27 May 12:22:23 12:25:33 19° 290° (WNW) 12:28:35 434.975-435.025
CUBEBUG 1 27 May 12:34:11 12:38:33 57° 285° (WNW) 12:42:54 437.445
Oscar 19 27 May 12:35:17 12:38:57 20° 68° (ENE) 12:42:48 437.125/150
BUGSAT 1 27 May 12:37:32 12:40:02 15° 268° (W) 12:42:24 437.445
VELOX 1 27 May 12:37:57 12:41:44 26° 289° (WNW) 12:45:24 145.980
CUSAT 1 27 May 12:38:08 12:44:55 52° 92° (E) 12:52:51 437.405
GONETS M04 27 May 12:40:59 12:49:00 42° 89° (E) 12:57:11
ESTCUBE 1 27 May 12:42:21 12:46:36 40° 286° (WNW) 12:50:50 437.505/2401.250
50 SAT 27 May 12:52:46 12:54:29 12° 291° (WNW) 12:55:59 437.505
SPROUT 27 May 13:10:58 13:15:19 83° 285° (WNW) 13:19:38 437.525
AISAT 27 May 13:11:43 13:13:22 12° 293° (WNW) 13:14:46 437.250
SWISSCUBE 27 May 13:20:26 13:22:22 13° 91° (E) 13:24:36 437.505
SO-50 27 May 13:29:27 13:33:36 26° 248° (WSW) 13:37:34 436.795
Gurwin Techsat 1B 27 May 13:31:30 13:35:06 19° 68° (ENE) 13:38:53 435.225
TISAT 1 27 May 13:32:15 13:36:30 64° 284° (WNW) 13:40:41 437.305
SRMSAT 27 May 13:32:57 13:37:11 20° 178° (S) 13:41:25 437.500
Cosmos 2499 27 May 13:43:59 13:48:06 16° 85° (E) 13:52:36 435.465 / 435.565
DANDE 27 May 13:53:02 13:59:49 59° 283° (WNW) 14:08:01 436.750
JUGNU 27 May 14:03:54 14:07:28 16° 190° (S) 14:10:57 437.505
AO-7 27 May 14:11:20 14:15:19 15° 56° (NE) 14:19:50 29.400- 29.500
Oscar 19 27 May 14:13:10 14:18:03 41° 262° (W) 14:22:56 437.125/150
JAS-2 27 May 14:15:50 14:17:01 11° 65° (ENE) 14:18:38 435.910
CUSAT 1 27 May 14:21:42 14:28:03 30° 291° (WNW) 14:34:54 437.405
ITAMSAT 1 27 May 14:28:09 14:33:18 77° 74° (ENE) 14:38:29 435.822/435.867
RS-15 27 May 14:31:22 14:33:59 11° 8° (N) 14:36:52 29.354- 29.394
GONETS M04 27 May 14:37:53 14:45:56 37° 286° (WNW) 14:53:50
ITUPSAT 1 27 May 14:39:54 14:44:43 89° 283° (WNW) 14:49:31 437.325
KKS-1 27 May 14:42:48 14:45:11 15° 92° (E) 14:47:46 437.445
O/OREOS (USA 219) 27 May 14:44:59 14:48:23 22° 103° (ESE) 14:51:54 437.305
BEESAT 27 May 14:47:15 14:52:00 73° 285° (WNW) 14:56:46 436.000
SWISSCUBE 27 May 14:55:56 15:00:36 53° 286° (WNW) 15:05:15 437.505
Gurwin Techsat 1B 27 May 15:09:43 15:14:46 44° 261° (W) 15:19:50 435.225
SRMSAT 27 May 15:21:50 15:25:43 18° 188° (S) 15:29:33 437.500
Cosmos 2499 27 May 15:32:23 15:40:40 79° 277° (W) 15:48:20 435.465 / 435.565
STARS 27 May 15:43:56 15:48:11 46° 99° (E) 15:52:25 437.465
JAS-2 27 May 15:54:45 16:01:40 84° 75° (ENE) 16:07:44 435.910
AO-7 27 May 15:58:46 16:07:03 80° 72° (ENE) 16:15:23 29.400- 29.500
HORYU 2 27 May 16:04:35 16:09:03 67° 259° (WSW) 16:13:31 437.375
MOZHAYETS 4 27 May 16:17:06 16:18:42 12° 90° (E) 16:20:35
KKS-1 27 May 16:17:50 16:22:03 40° 286° (WNW) 16:26:12 437.445
O/OREOS (USA 219) 27 May 16:23:46 16:27:41 27° 297° (WNW) 16:31:31 437.305
BEESAT 3 27 May 16:34:34 16:35:33 11° 109° (ESE) 16:36:47 437.485
RS-15 27 May 16:42:33 16:52:07 30° 41° (NE) 17:02:22 29.354- 29.394
Cubesat XI-IV 27 May 17:09:19 17:12:00 15° 66° (ENE) 17:14:57 437.490
BEESAT 2 27 May 17:21:28 17:25:08 33° 114° (ESE) 17:28:53 435.950
STARS 27 May 17:22:02 17:24:16 13° 292° (WNW) 17:26:18 437.465
Cosmos 2499 27 May 17:32:40 17:35:05 11° 296° (WNW) 17:36:46 435.465 / 435.565
JAS-2 27 May 17:44:34 17:47:15 12° 269° (W) 17:49:19 435.910
MOZHAYETS 4 27 May 17:51:51 17:56:17 51° 285° (WNW) 18:00:42
AO-7 27 May 17:55:27 18:00:48 17° 269° (W) 18:05:36 29.400- 29.500
CUBESAT XI-V 27 May 17:58:03 17:59:27 11° 90° (E) 18:01:11 437.345
BEESAT 3 27 May 18:09:11 18:13:08 49° 302° (WNW) 18:17:08 437.485
CUTE-I 27 May 18:25:27 18:30:45 83° 76° (ENE) 18:36:07 437.470
YUBILEINY 27 May 18:26:49 18:35:10 50° 78° (ENE) 18:43:33 435.215
Cosmos 2491 27 May 18:27:03 18:33:58 28° 86° (E) 18:41:13 435.465 / 435.565
Cubesat XI-IV 27 May 18:46:24 18:51:39 61° 259° (W) 18:56:55 437.490
AIST 2 27 May 18:53:45 18:57:59 79° 299° (WNW) 19:02:17 435.215
RS-15 27 May 18:54:14 19:06:01 81° 243° (WSW) 19:18:12 29.354- 29.394
PRISM 27 May 18:59:21 19:02:35 22° 96° (E) 19:05:54 437.425
BEESAT 2 27 May 19:00:20 19:03:20 19° 309° (NW) 19:06:14 435.950
CUBESAT XI-V 27 May 19:32:42 19:37:19 56° 284° (WNW) 19:41:55 437.345
STRAND 1 27 May 19:33:04 19:38:04 51° 100° (E) 19:43:05 437.568
HO-68 27 May 19:33:23 19:38:48 25° 64° (ENE) 19:44:26 435.675
DOVE 4 27 May 19:36:53 19:39:25 14° 66° (ENE) 19:42:15 437.250
CANX-2 27 May 19:48:44 19:51:10 16° 70° (ENE) 19:53:48 2200.000
CUTE 1.7 + AOD 2 27 May 19:52:13 19:54:36 15° 70° (ENE) 19:57:10 437.475
AIST 1 27 May 20:03:06 20:06:34 25° 91° (E) 20:10:08
